Wind_Speed
19 18 14 13 12 13 13 14 14 12 12 13 14 14 13 12 12 11 9 9 11 12 12 12 13 14 15 15 16 16 16 16 16 18 17 17 18 18 19 19 18 17 17
25 19 16 14 15 13 13 12 14 12 12 13 13 12 12 12 12 11 10 10 10 10 12 12 11 13 14 14 14 16 15 16 17 18 17 16 17 18 17 17 17 18 16
26 20 17 14 15 13 13 12 13 12 11 12 12 12 11 11 11 11 12 11 9 11 11 11 12 11 13 14 14 14 15 15 16 17 17 18 18 16 16 17 17 16 16
27 22 18 15 16 14 13 12 12 11 11 11 10 10 11 10 10 11 12 12 11 10 12 10 10 11 13 12 13 15 15 16 17 18 16 17 16 16 16 16 16 16 16
27 23 19 15 15 16 13 12 11 11 10 10 10 9 9 9 11 11 11 11 12 11 14 11 10 11 11 11 12 15 15 15 16 16 16 14 17 16 15 16 15 15 16
26 23 20 16 15 15 13 11 11 10 10 10 9 8 8 8 9 10 10 11 11 12 12 12 12 11 9 10 9 11 13 14 16 17 17 15 15 14 15 15 14 14 15
25 22 19 16 15 15 12 10 11 10 10 10 9 8 8 7 8 9 9 9 10 12 12 12 12 11 11 14 14 14 12 14 16 16 15 14 15 15 13 14 13 13 13
25 22 19 16 14 13 12 11 10 11 10 10 8 8 9 7 8 9 10 11 12 12 12 12 12 12 13 12 13 12 11 13 15 15 15 13 14 13 13 12 13 12 13
22 21 17 15 14 13 12 11 11 11 11 9 10 8 8 8 8 10 10 11 12 12 12 12 10 12 13 13 12 9 10 12 13 14 14 13 13 12 12 11 10 10 12
21 20 19 16 15 14 13 11 11 11 10 10 10 9 9 7 8 9 10 11 11 11 12 12 12 11 12 11 11 10 10 11 12 13 12 13 10 11 11 10 10 11 10
19 19 18 17 15 15 14 12 11 11 10 10 10 9 8 8 8 10 10 11 10 10 11 11 10 10 8 8 8 9 8 8 10 11 10 10 10 8 9 8 8 9 9
18 20 20 18 18 16 16 14 14 12 12 11 11 10 10 9 9 10 10 10 10 9 10 9 8 6 5 5 7 6 5 7 9 9 10 7 8 7 7 7 6 7 7
20 22 21 20 19 18 17 16 15 14 13 12 11 10 9 9 9 9 11 10 10 9 8 9 7 5 2 5 5 4 4 6 7 8 8 6 5 5 5 4 5 4 4
20 21 22 20 19 18 17 17 16 15 14 12 10 8 7 7 6 7 8 9 9 6 5 3 4 3 1 4 4 2 2 4 6 6 7 5 5 2 2 3 2 2 2
25 24 24 21 20 18 18 18 18 17 14 12 9 6 4 4 4 5 4 5 5 6 5 5 4 5 2 3 3 2 2 3 4 5 5 4 3 2 1 1 1 1 1
26 26 25 22 21 19 19 18 18 16 13 10 8 7 6 5 6 6 3 3 5 4 4 5 4 2 3 3 4 3 2 2 3 3 3 2 1 1 0 1 1 2 2
30 27 26 24 22 20 21 19 18 15 11 9 7 8 8 7 7 3 3 3 5 2 3 4 3 0 1 2 3 2 1 1 1 2 1 0 0 1 2 2 2 3 4
29 28 27 25 24 21 22 20 16 14 11 8 8 9 9 6 7 6 6 4 3 3 4 3 5 3 2 1 4 3 1 1 1 1 1 2 3 3 3 3 4 5 6
32 30 29 27 25 24 22 20 16 13 12 9 10 9 10 5 6 5 6 6 6 5 2 2 5 4 2 2 1 4 4 3 3 4 4 4 4 5 5 5 5 6 7
33 32 31 29 26 24 22 20 17 14 13 12 13 9 9 8 7 5 6 8 7 6 4 2 3 4 2 2 3 2 5 5 7 8 8 8 6 6 6 6 7 7 7
30 32 30 31 27 25 24 22 20 18 15 13 13 12 7 8 8 7 8 9 9 6 5 4 3 4 3 2 2 4 6 9 11 11 11 12 10 9 10 9 9 9 8
35 36 34 32 31 29 27 25 22 19 13 13 15 13 10 8 7 9 8 9 8 7 7 6 4 2 3 3 1 2 3 4 5 9 12 13 14 13 13 12 12 10 9
30 38 39 37 35 33 28 23 20 17 12 12 14 14 12 9 4 9 9 8 6 11 7 6 3 1 3 4 2 1 2 2 5 3 4 8 11 13 14 13 13 11 10
33 37 40 40 37 36 31 27 26 23 19 17 16 15 12 11 7 5 10 10 8 7 8 6 4 1 4 3 1 1 2 2 1 3 3 3 5 8 9 9 9 10 11
28 36 40 42 40 39 35 32 27 24 21 17 16 15 12 10 8 8 8 9 8 8 8 7 4 1 2 2 2 2 3 2 2 1 2 6 6 6 8 9 9 10 9
30 31 34 38 41 41 38 34 31 27 24 19 17 15 15 12 11 11 9 9 9 10 8 9 8 6 3 3 2 4 2 2 2 2 1 2 4 5 7 7 8 8 9
Wind_Direction
163 153 145 135 125 118 112 113 108 99 103 98 95 96 96 100 105 109 112 112 110 111 109 108 108 107 107 106 106 104 104 103 100 95 94 94 93 92 92 91 92 88 88
155 150 145 139 133 130 120 116 112 107 101 99 100 100 99 95 103 103 105 103 112 115 113 108 111 112 112 111 108 104 102 103 103 99 94 93 95 93 94 93 92 88 88
152 148 144 145 138 134 132 122 115 113 112 107 100 103 102 99 102 102 97 103 104 108 110 112 114 113 111 109 107 105 104 101 97 94 95 94 93 97 94 89 90 89 90
150 149 146 149 144 142 137 126 118 120 115 109 108 105 103 100 104 93 102 94 90 96 109 106 110 109 106 110 111 106 103 103 104 102 101 101 94 92 93 93 92 85 87
151 150 147 148 143 144 146 132 124 123 116 112 106 101 100 94 97 97 96 95 90 91 99 99 106 101 108 111 115 106 104 107 109 109 104 95 97 97 93 94 90 84 85
151 152 151 152 146 143 141 136 135 129 123 117 107 102 102 96 96 101 97 99 96 91 89 101 102 103 104 105 117 127 105 109 110 109 103 98 98 98 94 93 90 88 81
151 153 154 153 149 150 149 143 142 133 132 123 114 113 107 103 103 102 95 92 94 95 96 102 105 97 105 107 110 113 103 113 113 112 105 101 105 98 97 93 89 90 91
152 153 152 159 157 150 147 144 143 136 131 122 123 112 112 105 96 95 89 82 86 96 102 106 101 95 104 118 111 110 108 117 118 114 110 107 100 99 99 93 93 92 90
155 154 155 153 154 152 151 149 145 135 131 125 116 117 111 101 91 88 84 85 90 100 106 103 96 99 102 106 101 103 112 118 119 115 114 112 108 103 99 96 94 93 84
160 158 159 157 155 158 149 145 140 135 125 119 117 117 103 97 90 93 90 93 96 103 110 110 107 110 106 104 103 99 115 121 120 119 113 109 108 108 108 100 94 93 87
165 167 164 161 162 159 147 141 140 130 131 121 125 123 128 119 113 107 90 94 102 105 113 115 110 100 95 89 117 107 107 116 126 121 120 115 113 117 108 101 95 87 86
167 175 169 169 166 159 148 152 144 145 142 137 138 130 124 117 110 108 100 96 104 107 115 116 119 122 96 109 116 121 101 120 131 128 118 126 120 117 108 101 98 88 85
171 175 177 174 169 164 161 159 153 151 146 141 139 134 127 124 122 119 117 118 119 118 124 139 140 137 132 140 127 102 97 124 135 136 126 121 108 113 124 119 110 104 96
174 178 179 178 174 171 170 163 156 155 152 148 145 137 134 130 129 126 120 120 127 124 134 126 141 141 137 169 197 224 101 134 138 144 138 137 145 132 100 101 82 76 95
177 184 182 181 180 176 173 168 163 163 163 161 164 168 164 164 153 149 140 141 128 119 132 133 128 104 61 207 207 237 142 137 142 154 142 143 154 160 111 62 24 34 30
184 188 185 185 182 179 177 175 173 172 172 177 187 202 200 204 210 182 182 150 157 145 135 132 128 52 36 118 152 147 117 135 155 148 138 133 157 184 132 336 312 325 335
190 189 192 186 185 184 182 178 178 178 186 200 205 218 221 227 261 199 212 160 138 106 161 168 204 161 40 179 172 156 144 160 166 112 115 119 30 286 297 307 311 306 320
191 191 192 190 188 188 187 185 188 192 195 207 215 225 233 243 247 211 186 206 184 116 115 140 181 187 126 148 214 221 320 284 252 316 323 307 313 315 312 288 302 312 309
190 190 190 192 188 187 187 190 191 202 216 219 230 240 239 216 241 217 175 172 160 143 116 97 175 200 242 211 266 274 267 275 306 301 303 308 307 315 321 321 314 311 317
192 193 190 191 189 190 190 195 205 215 221 224 230 232 230 227 225 209 186 179 173 179 170 113 171 183 192 223 305 316 257 280 289 289 294 291 293 296 305 313 312 311 310
190 196 195 194 191 191 195 199 201 214 221 222 215 218 224 233 229 201 193 172 174 180 203 156 151 204 196 223 264 289 271 267 275 281 281 285 286 290 294 296 303 308 307
192 200 200 200 197 197 200 203 204 200 206 216 208 209 221 232 212 208 184 175 188 185 176 176 179 130 172 197 328 32 3 320 299 278 270 279 283 285 287 295 296 303 310
188 197 202 203 203 205 202 201 195 191 187 189 198 209 214 223 216 193 194 195 185 181 176 169 185 258 192 193 249 45 28 289 323 330 312 295 288 282 290 292 289 291 298
192 200 202 204 204 206 203 197 197 193 183 196 207 209 216 218 226 217 216 208 197 191 192 176 186 249 193 182 179 337 308 297 344 338 340 335 311 310 307 305 298 294 299
193 197 204 205 205 208 205 201 197 196 196 197 201 210 214 222 225 223 205 198 219 202 197 201 207 217 212 227 259 340 290 303 339 93 315 341 339 329 317 309 309 306 314
195 195 197 201 204 209 208 207 204 200 200 195 197 200 212 222 229 225 225 223 228 208 211 218 218 222 226 226 271 260 288 352 360 25 31 333 303 328 333 333 320 324 327
Height
818 821 824 825 827 827 828 828 829 830 831 832 833 834 835 835 836 836 837 837 837 838 839 840 840 841 841 842 843 843 843 843 843 845 845 846 847 847 849 849 849 850 850
817 822 824 826 828 830 831 831 831 833 834 835 836 837 838 838 839 839 839 839 840 840 841 842 843 843 843 844 845 844 846 846 846 848 849 850 851 851 851 852 853 853 854
818 822 825 828 829 832 833 834 835 837 837 838 839 840 840 841 841 841 841 842 842 843 844 845 846 846 846 846 847 848 848 849 850 851 852 853 854 855 855 855 856 856 856
819 823 826 829 830 833 835 836 838 839 840 841 842 842 842 843 843 843 844 844 845 845 846 847 848 848 849 849 849 850 851 853 853 854 855 856 857 858 858 858 859 859 859
820 824 828 831 832 834 836 838 840 841 842 843 844 844 845 845 845 845 846 847 847 848 848 849 850 851 852 852 854 854 855 855 856 857 858 859 859 860 861 861 862 862 862
822 826 830 833 834 835 837 839 841 843 844 845 845 846 846 847 848 848 849 849 849 850 851 851 853 854 855 854 856 856 857 858 858 860 861 862 862 863 863 864 864 865 865
824 828 831 834 836 837 839 841 843 844 845 846 847 848 849 850 851 851 851 852 853 853 854 854 855 856 856 857 857 859 860 860 861 862 863 864 865 865 866 867 867 867 867
826 829 833 835 837 838 840 843 844 846 847 848 848 850 851 853 854 854 854 855 856 856 857 857 858 859 859 860 861 861 862 863 864 865 866 867 868 868 869 869 869 870 870
829 831 834 836 838 840 842 844 845 846 849 850 851 852 853 854 856 856 857 858 859 860 860 860 861 862 863 863 863 864 864 866 867 867 868 869 871 871 871 871 872 872 872
831 833 835 838 840 841 843 845 847 849 851 852 853 853 855 856 858 859 859 860 862 862 863 864 865 865 867 866 866 867 868 869 870 870 871 872 873 873 873 874 874 875 874
834 835 837 839 840 842 844 847 849 851 852 854 855 855 856 858 860 861 862 863 865 865 866 867 868 869 869 869 870 870 871 872 872 873 873 874 875 875 876 876 876 877 877
833 836 837 840 841 844 846 848 850 853 854 855 856 858 858 859 862 864 865 866 867 868 868 870 871 870 871 871 872 873 873 874 875 876 876 876 876 877 877 878 878 879 879
831 835 838 840 842 844 847 849 851 854 856 857 858 860 861 862 863 865 867 868 868 869 870 871 872 872 872 874 875 875 875 875 876 877 878 878 879 878 879 879 880 880 881
831 834 837 840 843 845 848 850 852 855 857 859 860 862 863 864 865 867 868 869 871 872 872 872 873 874 875 876 876 877 877 878 878 878 879 880 880 880 881 882 882 882 881
830 833 836 841 843 846 849 851 853 855 858 860 862 864 865 866 867 868 870 871 873 873 873 874 875 876 876 876 877 878 879 880 880 880 880 880 881 882 883 883 883 882 882
830 833 836 841 844 847 849 852 854 856 859 861 863 865 867 868 868 869 870 872 874 875 876 876 877 878 878 878 879 880 881 882 881 881 881 881 882 884 884 884 884 883 883
828 832 836 839 844 847 849 853 855 858 860 862 864 865 868 869 870 869 871 873 875 876 877 878 878 879 880 880 881 882 883 883 883 883 883 883 883 884 884 884 884 884 884
828 831 836 840 843 846 849 853 856 858 860 862 864 866 868 870 870 870 872 873 875 876 878 878 879 880 881 883 883 884 884 884 884 884 884 884 884 884 884 884 885 885 884
825 830 835 838 841 845 849 853 856 859 860 863 865 866 868 870 870 871 872 873 875 877 878 879 880 881 883 885 885 885 885 886 885 885 885 885 885 885 885 884 885 885 884
824 828 833 837 840 845 849 853 855 858 860 862 864 866 867 869 871 872 873 874 876 878 879 880 881 882 884 886 886 885 886 886 886 886 885 885 885 885 885 885 885 885 885
824 828 833 836 839 844 847 850 853 856 858 860 862 865 867 868 870 871 873 875 877 879 880 881 882 884 885 885 886 886 886 886 885 885 885 885 885 885 885 885 885 884 884
820 825 831 835 838 841 844 847 851 854 857 859 862 865 867 868 870 871 874 876 878 879 881 882 884 884 884 885 886 888 888 885 883 883 883 884 883 884 884 884 884 884 883
818 821 825 830 835 839 843 847 850 853 856 859 861 864 866 868 869 871 874 876 878 879 881 883 883 884 884 886 887 889 890 890 885 882 882 882 882 883 883 883 883 883 882
811 816 821 827 832 837 842 845 847 848 852 856 859 862 865 867 869 871 873 875 878 879 880 882 884 884 885 886 887 888 889 889 888 886 882 882 882 882 882 882 882 881 881
811 813 818 823 829 834 839 842 845 847 851 854 857 861 864 866 868 871 873 874 876 878 880 882 883 884 885 886 887 888 888 888 887 887 886 883 882 882 882 881 881 880 880
806 811 815 820 824 831 836 840 842 845 849 852 855 858 861 864 867 869 871 874 876 877 879 881 883 884 885 886 887 887 888 887 887 887 886 886 885 882 881 880 880 880 879